Beaufort, NC

6:54 PM EDT on August 27, 2016 (GMT -0400)
Smith

Weather History for KMRH - November, 2010

Change the Weather History Date:

Wednesday, November 10, 2010

  Actual Average Record
Temperature  
Mean Temperature 54 °F -  
Max Temperature 63 °F 70 °F 80 °F (1975)
Min Temperature 46 °F 51 °F 35 °F (1973)
Degree Days  
Heating Degree Days 10    
Growing Degree Days 4 (Base 50)    
Moisture  
Dew Point 45 °F    
Average Humidity 74    
Maximum Humidity 89    
Minimum Humidity 54    
Precipitation  
Precipitation 0.00 in - - ()
Sea Level Pressure  
Sea Level Pressure 30.07 in    
Wind  
Wind Speed 7 mph (North)    
Max Wind Speed 16 mph    
Max Gust Speed 22 mph    
Visibility 10 miles    
Events      
Averages and records for this station are not official NWS values.
T = Trace of Precipitation, MM = Missing Value Source: NWS Daily Summary

Daily Weather History Graph

Daily Weather History Graph

Search for Another Location

Airport or City:

Trip Planner

Search our weather history database for the weather conditions in past years. The results will help you decide how hot, cold, wet, or windy it might be!

Date:

Astronomy

Nov. 10, 2010 Rise Set
Actual Time 6:35 AM EST 5:05 PM EST
Civil Twilight 6:09 AM EST 5:31 PM EST
Nautical Twilight 5:38 AM EST 6:01 PM EST
Astronomical Twilight 5:09 AM EST 6:31 PM EST
Moon 10:53 AM EST (11/10) 9:08 PM EST (11/10)
Length of Visible Light 11h 22m
Length of Day
10h 29m
Waxing Crescent, 22% of the Moon is Illuminated
Nov 10
Waxing Crescent
Nov 13
First Quarter
Nov 21
Full
Nov 28
Last Quarter
Dec 5
New

Hourly Weather History & Observations

Time (EST) Temp. Dew Point Humidity Pressure Visibility Wind Dir Wind Speed Gust Speed Precip Events Conditions
12:56 AM 48.0 °F 45.0 °F 89% 29.97 in 10.0 mi NW 3.5 mph - N/A   Clear
2:56 AM 46.9 °F 43.0 °F 86% 29.98 in 10.0 mi NW 3.5 mph - N/A   Clear
3:56 AM 48.0 °F 43.0 °F 83% 29.99 in 10.0 mi NW 8.1 mph - N/A   Clear
4:56 AM 48.0 °F 42.1 °F 80% 30.00 in 10.0 mi NNW 5.8 mph - N/A   Clear
5:56 AM 46.9 °F 42.1 °F 83% 30.02 in 10.0 mi NNW 6.9 mph - N/A   Clear
6:56 AM 46.9 °F 42.1 °F 83% 30.04 in 10.0 mi NNW 6.9 mph - N/A   Clear
7:56 AM 50.0 °F 44.1 °F 80% 30.06 in 10.0 mi NNW 8.1 mph - N/A   Clear
8:56 AM 53.1 °F 45.0 °F 74% 30.07 in 10.0 mi North 10.4 mph - N/A   Clear
9:56 AM 57.0 °F 45.0 °F 64% 30.08 in 10.0 mi NNW 9.2 mph - N/A   Clear
10:56 AM 59.0 °F 45.0 °F 60% 30.07 in 10.0 mi North 8.1 mph - N/A   Clear
11:56 AM 61.0 °F 44.1 °F 54% 30.06 in 10.0 mi NNE 16.1 mph 21.9 mph N/A   Clear
12:56 PM 62.1 °F 46.0 °F 56% 30.04 in 10.0 mi North 11.5 mph - N/A   Clear
1:56 PM 63.0 °F 46.0 °F 54% 30.04 in 10.0 mi North 13.8 mph - N/A   Clear
2:56 PM 63.0 °F 46.0 °F 54% 30.04 in 10.0 mi NNW 9.2 mph - N/A   Clear
3:56 PM 61.0 °F 46.9 °F 60% 30.06 in 10.0 mi NNE 6.9 mph - N/A   Clear
4:56 PM 57.0 °F 46.0 °F 67% 30.07 in 10.0 mi NE 4.6 mph - N/A   Clear
5:56 PM 54.0 °F 46.0 °F 75% 30.10 in 10.0 mi NE 4.6 mph - N/A   Clear
6:56 PM 53.1 °F 46.9 °F 80% 30.12 in 10.0 mi NE 6.9 mph - N/A   Clear
7:56 PM 52.0 °F 46.0 °F 80% 30.14 in 10.0 mi NE 6.9 mph - N/A   Clear
8:56 PM 51.1 °F 45.0 °F 80% 30.15 in 10.0 mi NE 4.6 mph - N/A   Clear
9:56 PM 48.0 °F 44.1 °F 86% 30.16 in 10.0 mi NNE 4.6 mph - N/A   Clear
10:56 PM 46.9 °F 43.0 °F 86% 30.16 in 10.0 mi North 4.6 mph - N/A   Clear
11:56 PM 50.0 °F 46.0 °F 86% 30.16 in 10.0 mi NNW 6.9 mph - N/A   Clear